sat.trackr.live / text

‹ back to catalog

STARLINK-11441 [DTC]

NORAD 62413 · 2024-249E

PAYLOAD ACTIVE UNKNOWN

§ Identity

Operator
Country
US
Launch date
2024-12-23
Launch site
AFETR
Launch vehicle
Mass (kg)
RCS (m²)

Purposes: comms

External: N2YO · Heavens-Above · Gunter

§ Orbital elements

Epoch: 2026-09-21T22:00:03.000096Z

Period
91.67 min
Inclination
43.0006°
Eccentricity
0.0001378
Mean motion
15.70812782 rev/d
Perigee alt
355.6 km
Apogee alt
357.5 km
Semi-major
6,734.7 km
B*
-2.8779e-5
RAAN
64.5774°
Arg perigee
275.0994°
Mean anomaly
143.6773°
Rev number
599

§ Raw data

STARLINK-11441 [DTC]1 62413U 24249E   26264.91670139 -.00004135  00000+0 -28779-4 0  99942 62413  43.0006  64.5774 0001378 275.0994 143.6773 15.70812782  5994

JSON: /api/v1/satellites/62413 · /tle

For live sub-satellite position, see the globe view (requires WebGL).

§ Visibility from observer

Set your observer location to see the next 7 days of passes ≥ 10°. The values pass through the URL so the page stays shareable.

No JS? Fill the form by hand. The geolocation button needs JavaScript.